This demonstration page uses our WeatherBlox Daily Observations layout. Learn more.

41.86663, -103.66717

Hourly Observations for June 15, 2019

Temp ( °F °C ) Dew Point ( °F °C ) Humidity (%) Winds ( mph kmh ) Pressure ( in mb ) Visibility ( mi km ) Precip ( " mm )
12:53 am 00:53 Clear 58 14.4 57 13.9 97 97 NW 10 17 29.75 1007 10 16.0934 0 0
1:53 am 01:53 Mostly Cloudy 57 13.9 57 13.9 100 100 WNW 5 7 29.76 1008 10 16.0934 0 0
2:53 am 02:53 Clear 55 12.8 55 12.8 100 100 W 6 9 29.77 1008 10 16.0934 0 0
3:53 am 03:53 Clear 54 12.2 54 12.2 100 100 NW 7 11 29.78 1009 10 16.0934 0 0
4:53 am 04:53 Clear 53 11.7 53 11.7 100 100 NW 5 7 29.82 1010 10 16.0934 0 0
5:53 am 05:53 Mostly Cloudy 55 12.8 54 12.2 96 96 NNW 3 6 29.83 1010 10 16.0934 0 0
6:53 am 06:53 Sunny 59 15 54 12.2 83 83 W 8 13 29.86 1011 10 16.0934 0 0
7:53 am 07:53 Sunny 62 16.7 56 13.3 80 80 WNW 9 15 29.88 1012 10 16.0934 0 0
8:53 am 08:53 Sunny 65 18.3 58 14.4 78 78 WNW 10 17 29.89 1012 10 16.0934 0 0
9:53 am 09:53 Sunny 72 22.2 59 15 64 64 N 8 13 29.88 1012 10 16.0934 0 0
10:53 am 10:53 Sunny 74 23.3 59 15 60 60 VRB 7 11 29.89 1012 10 16.0934 0 0
11:53 am 11:53 Sunny 76 24.4 61 16.1 60 60 NNW 9 15 29.89 1012 10 16.0934 0 0
12:53 pm 12:53 Sunny 77 25 62 16.7 60 60 NNW 8 13 29.88 1012 10 16.0934 0 0
1:53 pm 13:53 Sunny 77 25 61 16.1 58 58 VRB 7 11 29.88 1012 10 16.0934 0 0
2:53 pm 14:53 Sunny 80 26.7 64 17.8 58 58 NNW 8 13 29.86 1011 10 16.0934 0 0
3:53 pm 15:53 Mostly Sunny 76 24.4 59 15 56 56 Calm 29.86 1011 10 16.0934 0 0
4:53 pm 16:53 Partly Cloudy 79 26.1 63 17.2 58 58 SSW 3 6 29.85 1011 10 16.0934 0 0
5:53 pm 17:53 Partly Cloudy 80 26.7 63 17.2 56 56 Calm 29.84 1011 10 16.0934 0 0
6:53 pm 18:53 Sunny 78 25.6 60 15.6 54 54 N 6 9 29.84 1011 10 16.0934 0 0
7:53 pm 19:53 Sunny 72 22.2 57 13.9 59 59 ENE 7 11 29.85 1011 10 16.0934 0 0
8:53 pm 20:53 Clear 65 18.3 55 12.8 70 70 Calm 29.88 1012 10 16.0934 0 0
9:53 pm 21:53 Clear 66 18.9 55 12.8 68 68 N 5 7 29.89 1012 10 16.0934 0 0
10:53 pm 22:53 Clear 62 16.7 54 12.2 75 75 NNE 6 9 29.9 1013 10 16.0934 0 0
11:53 pm 23:53 Clear 62 16.7 54 12.2 75 75 SE 3 6 29.89 1012 10 16.0934 0 0

Powered by AerisWeather